User: anonymous
Location: Caltech
(34.1382°N, 118.1253°W)
Time: 00:41:10
(UTC-07:00)
Language:

JAS-1B - Orbit

View from above orbital plane
View from above orbital plane
View from above satellite
View from above satellite

Ground track
Ground track

The orbit data is extracted from the following two-line orbital elements,

1 20480U 90013C   14260.81371351 -.00000024  00000-0  11372-4 0  8364
2 20480 099.0557 206.5724 0540905 143.9638 276.0180 12.83395655153015
Epoch (UTC): 17 September 2014 19:31:44
Eccentricity: 0.0540905
inclination: 99.0557°
perigee height: 911 km
apogee height: 1744 km
right ascension of ascending node: 206.5724°
argument of perigee: 143.9638°
revolutions per day: 12.83395655
mean anomaly at epoch: 276.0180°
orbit number at epoch: 15301

The dashed part of the orbit path shows where the satellite is in the earth's shadow,  

DLR